User: anonymous   Login
Location: Caltech
(34.1382°N, 118.1253°W)
Time: 14:23:06
(UTC-07:00)
Language:

Cosmos 1408 Rocket - Orbit

View from above orbital plane
View from above orbital plane
View from above satellite
View from above satellite

Ground track
Ground track

The orbit data is extracted from the following two-line orbital elements,

1 13553U 82092B   17263.81818588 +.00000103 +00000-0 +93457-5 0  9991
2 13553 082.5695 144.9968 0022999 088.8673 317.2740 14.84135845870132
Epoch (UTC): 20 September 2017 19:38:11
Eccentricity: 0.0022999
inclination: 82.5695°
perigee height: 600 km
apogee height: 632 km
right ascension of ascending node: 144.9968°
argument of perigee: 88.8673°
revolutions per day: 14.84135845
mean anomaly at epoch: 317.2740°
orbit number at epoch: 87013

The dashed part of the orbit path shows where the satellite is in the earth's shadow,  

DLR